1494817200.3,431,15.5,74302.0,-3.65,-29.67,-29.13,0,*55
1494817201.55,432,15.56,74302.0,-3.67,-29.67,-29.17,0,*50
1494817202.84,433,15.5,74296.0,-3.67,-29.89,-29.51,0,*53
1494817204.11,434,15.56,74306.5,-3.67,-30.01,-29.51,0,*5C
1494817205.39,435,15.56,74302.8,-3.67,-29.73,-29.35,0,*52
1494817206.66,436,15.56,74304.3,-3.67,-29.73,-29.39,0,*5D
1494817207.89,437,15.56,74302.0,-3.65,-29.83,-29.35,0,*5D
1494817209.15,438,15.5,74302.5,-3.67,-29.83,-29.35,0,*50
1494817210.41,439,15.56,74302.3,-3.67,-29.83,-29.35,0,*51
1494817211.65,440,15.56,74304.0,-3.67,-29.73,-29.23,0,*57
1494817212.88,441,15.5,74304.8,-3.67,-29.67,-29.23,0,*53
1494817214.15,442,15.5,74302.0,-3.67,-29.73,-29.35,0,*52
1494817215.41,443,15.56,74300.0,-3.67,-29.83,-29.35,0,*5C
1494817216.66,444,15.5,74298.3,-3.65,-29.89,-29.39,0,*5F
1494817217.92,445,15.56,74298.0,-3.67,-29.83,-29.39,0,*56
1494817219.14,446,15.5,74296.8,-3.67,-29.67,-29.23,0,*54
1494817220.34,447,15.5,74296.5,-3.65,-29.67,-29.23,0,*57
1494817221.62,448,15.5,74296.3,-3.67,-29.73,-29.35,0,*58
1494817222.89,449,15.56,74298.5,-3.67,-29.51,-29.13,0,*5D
1494817224.16,450,15.5,74302.8,-3.67,-29.73,-29.17,0,*51
1494817225.42,451,15.56,74306.0,-3.67,-29.83,-29.35,0,*5F
1494817226.69,452,15.5,74304.3,-3.67,-29.73,-29.39,0,*5F
1494817227.94,453,15.5,74304.5,-3.67,-29.67,-29.17,0,*57
1494817229.19,454,15.5,74302.3,-3.67,-29.73,-29.23,0,*52
1494817230.46,455,15.5,74298.5,-3.67,-29.51,-29.13,0,*50
1494817231.69,456,15.5,74296.3,-3.67,-29.23,-28.85,0,*58
1494817232.95,457,15.56,74298.8,-3.67,-29.35,-28.85,0,*5E
1494817234.21,458,15.56,74298.3,-3.65,-29.51,-29.01,0,*5C
1494817235.46,459,15.5,74296.0,-3.67,-29.57,-29.17,0,*5E
1494817236.75,460,15.5,74300.3,-3.67,-29.39,-29.01,0,*5B
1494817237.97,461,15.5,74300.8,-3.65,-29.57,-29.13,0,*53
1494817239.25,462,15.56,74300.8,-3.67,-29.39,-29.01,0,*59
1494817240.49,463,15.5,74298.0,-3.65,-29.35,-28.85,0,*5B
1494817241.71,464,15.5,74300.3,-3.65,-29.67,-29.17,0,*51
1494817242.96,465,15.56,74300.0,-3.65,-29.51,-29.13,0,*51
1494817244.16,466,15.56,74302.0,-3.61,-29.45,-29.07,0,*56
1494817245.41,467,15.5,74300.0,-3.67,-29.67,-29.17,0,*50
1494817246.63,468,15.56,74300.8,-3.67,-29.67,-29.23,0,*58
1494817247.88,469,15.5,74298.8,-3.65,-29.51,-29.13,0,*5D
1494817249.11,470,15.5,74300.3,-3.67,-29.67,-29.23,0,*51
1494817250.31,471,15.56,74302.0,-3.65,-29.67,-29.23,0,*52
1494817251.5,472,15.5,74300.0,-3.65,-29.67,-29.23,0,*51
1494817252.73,473,15.5,74298.5,-3.65,-29.57,-29.17,0,*54
1494817253.96,474,15.5,74302.5,-3.61,-29.45,-29.17,0,*54
1494817255.18,475,15.5,74302.8,-3.65,-29.67,-29.13,0,*55
1494817256.4,476,15.5,74302.0,-3.65,-29.67,-29.17,0,*52
1494817257.65,477,15.5,74300.0,-3.65,-29.51,-29.13,0,*52
1494817258.88,478,15.5,74300.5,-3.65,-29.67,-29.35,0,*5C
1494817260.11,479,15.5,74300.0,-3.65,-29.57,-29.17,0,*5E
1494817261.36,480,15.5,74302.0,-3.65,-29.51,-29.13,0,*5A
1494817262.61,481,15.5,74300.3,-3.65,-29.51,-29.13,0,*5B
1494817263.89,482,15.5,74302.3,-3.67,-29.39,-29.13,0,*54
1494817265.17,483,15.56,74304.8,-3.67,-29.51,-29.17,0,*5F
1494817266.42,484,15.5,74302.8,-3.65,-29.51,-29.13,0,*5E
1494817267.64,485,15.56,74306.3,-3.65,-29.57,-29.17,0,*5D
1494817268.84,486,15.5,74306.8,-3.65,-29.67,-29.23,0,*5A
1494817270.04,487,15.5,74302.5,-3.65,-29.57,-29.23,0,*58
1494817271.3,488,15.5,74304.5,-3.67,-29.35,-28.97,0,*5F
1494817272.5,489,15.5,74304.3,-3.65,-29.57,-29.23,0,*56
1494817273.7,490,15.5,74302.5,-3.65,-29.57,-29.23,0,*5E
1494817274.89,491,15.5,74304.0,-3.65,-29.67,-29.23,0,*5C
1494817276.17,492,15.5,74300.8,-3.67,-29.51,-29.13,0,*5B
1494817277.42,493,15.5,74302.3,-3.65,-29.51,-29.17,0,*5C
1494817278.68,494,15.5,74304.3,-3.67,-29.35,-28.97,0,*52
1494817279.93,495,15.56,74306.8,-3.65,-29.51,-29.17,0,*5A
1494817281.21,496,15.5,74300.0,-3.67,-29.51,-29.17,0,*5B
1494817282.46,497,15.5,74304.8,-3.65,-29.39,-29.13,0,*52
1494817283.69,498,15.56,74306.5,-3.65,-29.57,-29.17,0,*51
1494817284.94,499,15.5,74306.3,-3.65,-29.35,-29.17,0,*54
1494817286.19,500,15.5,74306.0,-3.65,-29.51,-29.13,0,*53
1494817287.45,501,15.56,74306.8,-3.65,-29.51,-29.17,0,*56
1494817288.73,502,15.5,74304.3,-3.67,-29.35,-29.01,0,*52
1494817289.98,503,15.5,74300.5,-3.67,-29.17,-28.97,0,*5D
1494817291.26,504,15.56,74304.5,-3.67,-29.39,-29.17,0,*5F
1494817292.51,505,15.56,74306.5,-3.65,-29.35,-29.01,0,*57
1494817293.74,506,15.5,74302.3,-3.61,-29.45,-29.13,0,*54
1494817294.96,507,15.5,74302.8,-3.61,-29.35,-29.07,0,*57
1494817296.21,508,15.5,74302.8,-3.67,-29.51,-29.23,0,*5A
1494817297.46,509,15.56,74304.8,-3.67,-29.23,-29.13,0,*5D
1494817298.73,510,15.5,74302.5,-3.67,-29.35,-29.13,0,*52
1494817300.01,511,15.5,74302.3,-3.67,-29.17,-29.01,0,*50
1494817301.29,512,15.5,74298.3,-3.67,-29.39,-29.01,0,*5F
1494817302.54,513,15.5,74300.5,-3.65,-29.35,-29.17,0,*57
1494817303.8,514,15.5,74298.3,-3.65,-29.35,-29.17,0,*50
1494817305.02,515,15.5,74302.3,-3.61,-29.45,-29.13,0,*56
1494817306.27,516,15.5,74300.5,-3.61,-29.35,-29.13,0,*52
1494817307.51,517,15.5,74300.5,-3.67,-29.13,-28.97,0,*5C
1494817308.77,518,15.5,74300.3,-3.65,-29.39,-29.17,0,*50
1494817309.99,519,15.5,74302.8,-3.65,-29.23,-29.01,0,*5D
1494817311.24,520,15.5,74302.8,-3.67,-29.13,-28.97,0,*58
1494817312.49,521,15.5,74300.5,-3.65,-29.35,-29.13,0,*52
1494817313.71,522,15.56,74300.5,-3.65,-29.17,-28.97,0,*5C
1494817314.93,523,15.5,74300.3,-3.65,-29.17,-28.97,0,*5D
1494817316.15,524,15.5,74300.0,-3.65,-29.23,-29.13,0,*50
1494817317.38,525,15.5,74304.5,-3.65,-29.23,-29.01,0,*52
1494817318.63,526,15.5,74304.8,-3.65,-29.35,-29.01,0,*56
1494817319.84,527,15.56,74306.5,-3.65,-29.23,-28.85,0,*5D
1494817321.07,528,15.5,74306.0,-3.65,-29.01,-28.85,0,*52
1494817322.29,529,15.5,74306.3,-3.65,-29.17,-28.97,0,*57
1494817323.51,530,15.5,74302.8,-3.65,-29.17,-28.97,0,*5F
1494817324.71,531,15.5,74300.3,-3.65,-29.23,-28.97,0,*59
1494817325.95,532,15.5,74302.3,-3.65,-29.13,-28.79,0,*59
1494817327.2,533,15.5,74300.0,-3.65,-29.35,-29.13,0,*51
1494817328.47,534,15.56,74302.8,-3.59,-29.01,-28.75,0,*5F
1494817329.72,535,15.5,74298.5,-3.59,-29.01,-28.69,0,*53
1494817330.96,536,15.5,74296.5,-3.61,-29.13,-28.79,0,*59
1494817332.22,537,15.5,74300.5,-3.59,-29.01,-28.69,0,*51
1494817333.43,538,15.56,74304.3,-3.61,-29.07,-28.79,0,*52
1494817334.65,539,15.5,74302.8,-3.61,-29.13,-28.97,0,*56
1494817335.9,540,15.5,74300.8,-3.61,-29.13,-28.91,0,*5E
1494817337.15,541,15.5,74298.8,-3.59,-29.01,-28.69,0,*50
1494817338.38,542,15.5,74298.3,-3.61,-29.07,-28.91,0,*59
1494817339.62,543,15.5,74300.0,-3.61,-29.13,-29.13,0,*56
1494817340.84,544,15.56,74300.3,-3.61,-29.17,-28.97,0,*58
1494817342.09,545,15.5,74300.5,-3.61,-29.13,-28.91,0,*5B
1494817343.31,546,15.5,74300.5,-3.61,-29.13,-28.97,0,*5E
1494817344.56,547,15.5,74294.3,-3.59,-29.01,-28.85,0,*54
1494817345.81,548,15.56,74302.3,-3.59,-29.23,-28.91,0,*5E
1494817347.03,549,15.5,74296.3,-3.61,-29.13,-29.07,0,*59
1494817348.28,550,15.5,74302.5,-3.59,-29.07,-28.91,0,*51
1494817349.5,551,15.56,74302.8,-3.61,-29.07,-28.79,0,*5D
1494817350.72,552,15.5,74296.8,-3.61,-29.07,-28.91,0,*58
1494817351.92,553,15.5,74296.3,-3.61,-29.07,-28.97,0,*5F
1494817353.14,554,15.5,74298.3,-3.61,-29.07,-28.91,0,*5E
1494817354.37,555,15.5,74298.8,-3.61,-29.07,-28.75,0,*55
1494817355.58,556,15.5,74298.0,-3.61,-28.97,-28.75,0,*5E
1494817356.83,557,15.56,74304.3,-3.59,-28.91,-28.69,0,*5F
1494817358.05,558,15.5,74298.5,-3.61,-28.97,-28.75,0,*50
1494817359.28,559,15.5,74302.0,-3.61,-29.07,-28.91,0,*53
1494817360.53,560,15.5,74298.3,-3.59,-29.07,-29.01,0,*5A
1494817361.78,561,15.5,74300.5,-3.59,-28.85,-28.59,0,*5C
1494817362.98,562,15.5,74300.5,-3.61,-28.97,-28.97,0,*55
1494817364.25,563,15.5,74300.8,-3.59,-29.01,-28.75,0,*5D
1494817365.49,564,15.5,74302.3,-3.59,-28.91,-28.97,0,*5E
1494817366.77,565,15.5,74298.5,-3.59,-29.01,-29.01,0,*59
1494817368.01,566,15.5,74296.3,-3.59,-29.01,-29.07,0,*5C
1494817369.27,567,15.5,74294.8,-3.59,-29.01,-28.85,0,*56
1494817370.46,568,15.5,74298.3,-3.61,-29.07,-28.97,0,*57
1494817371.72,569,15.5,74300.5,-3.59,-29.01,-28.85,0,*58
1494817372.97,570,15.5,74296.5,-3.59,-29.07,-28.91,0,*53
1494817374.25,571,15.5,74298.3,-3.59,-28.91,-28.59,0,*58
1494817375.52,572,15.5,74294.5,-3.59,-28.59,-28.43,0,*54
1494817376.79,573,15.5,74296.3,-3.59,-28.59,-28.43,0,*55
1494817378.04,574,15.5,74292.3,-3.59,-28.85,-28.59,0,*58
1494817379.32,575,15.5,74298.8,-3.59,-28.91,-28.79,0,*5E
1494817380.56,576,15.5,74298.8,-3.57,-28.91,-28.75,0,*5F
1494817381.84,577,15.5,74298.0,-3.59,-28.91,-28.91,0,*5A
1494817383.12,578,15.5,74296.8,-3.59,-29.01,-28.91,0,*5D
1494817384.37,579,15.56,74302.3,-3.59,-29.07,-29.01,0,*52
1494817385.59,580,15.5,74298.8,-3.57,-29.07,-28.91,0,*52
1494817386.86,581,15.5,74300.5,-3.59,-29.01,-28.75,0,*51
1494817388.11,582,15.5,74302.3,-3.57,-28.91,-28.75,0,*54
1494817389.36,583,15.5,74296.8,-3.57,-28.91,-28.75,0,*55
1494817390.61,584,15.56,74296.8,-3.57,-28.91,-28.75,0,*52
1494817391.87,585,15.5,74296.3,-3.57,-28.91,-28.91,0,*59
1494817393.09,586,15.5,74296.5,-3.57,-28.85,-28.79,0,*59
1494817394.29,587,15.5,74296.3,-3.57,-28.69,-28.53,0,*52
1494817395.52,588,15.5,74298.8,-3.57,-28.85,-28.59,0,*55
1494817396.75,589,15.56,74302.5,-3.57,-28.91,-28.85,0,*50
1494817397.98,590,15.5,74296.3,-3.55,-28.85,-28.85,0,*5F
1494817399.23,591,15.56,74302.5,-3.57,-28.75,-28.59,0,*52
1494817400.48,592,15.56,74300.8,-3.57,-28.91,-28.91,0,*5F
1494817401.7,593,15.5,74298.5,-3.55,-28.97,-28.85,0,*5F
1494817402.93,594,15.5,74298.0,-3.57,-29.01,-28.85,0,*54
1494817404.15,595,15.56,74300.0,-3.55,-28.69,-28.53,0,*53
1494817405.37,596,15.5,74300.0,-3.55,-28.69,-28.53,0,*50
1494817406.6,597,15.5,74300.3,-3.55,-28.85,-28.85,0,*58
1494817407.83,598,15.56,74304.0,-3.57,-28.91,-28.85,0,*50
1494817409.06,599,15.5,74300.3,-3.55,-28.53,-28.53,0,*56
1494817410.28,600,15.5,74302.8,-3.55,-28.85,-28.85,0,*55
1494817411.49,601,15.56,74306.8,-3.53,-28.85,-28.85,0,*52
1494817412.73,602,15.5,74300.8,-3.55,-28.63,-28.53,0,*54
1494817413.98,603,15.5,74302.8,-3.55,-28.79,-28.69,0,*57
1494817415.2,604,15.5,74300.5,-3.55,-28.85,-28.69,0,*53
1494817416.48,605,15.56,74300.5,-3.55,-28.63,-28.63,0,*50
1494817417.69,606,15.5,74302.5,-3.55,-28.69,-28.69,0,*53
1494817418.94,607,15.56,74304.5,-3.55,-28.79,-28.69,0,*53
1494817420.16,608,15.5,74302.3,-3.55,-28.85,-28.69,0,*5F
1494817421.41,609,15.56,74304.3,-3.55,-28.79,-28.69,0,*5D
1494817422.63,610,15.5,74300.5,-3.55,-28.85,-28.85,0,*54
1494817423.88,611,15.5,74300.5,-3.55,-28.79,-28.69,0,*54
1494817425.15,612,15.5,74298.0,-3.55,-28.63,-28.63,0,*56
1494817426.43,613,15.5,74300.0,-3.55,-28.63,-28.63,0,*57
1494817427.67,614,15.5,74300.5,-3.55,-28.79,-28.69,0,*51
1494817428.92,615,15.5,74302.8,-3.55,-28.85,-28.79,0,*52
1494817430.19,616,15.5,74300.3,-3.55,-28.63,-28.63,0,*52
1494817431.43,617,15.5,74302.3,-3.55,-28.85,-28.79,0,*50
1494817432.68,618,15.5,74300.5,-3.53,-28.79,-28.79,0,*5A
1494817433.92,619,15.5,74294.8,-3.55,-28.63,-28.53,0,*5E
1494817435.19,620,15.5,74298.5,-3.55,-28.79,-28.79,0,*57
1494817436.42,621,15.5,74302.8,-3.55,-28.85,-28.85,0,*56
1494817437.68,622,15.5,74298.3,-3.55,-28.47,-28.47,0,*55
1494817438.92,623,15.5,74298.0,-3.55,-28.37,-28.47,0,*53
1494817440.17,624,15.5,74298.5,-3.55,-28.63,-28.69,0,*59
1494817441.41,625,15.5,74296.5,-3.55,-28.69,-28.79,0,*53
1494817442.61,626,15.5,74298.8,-3.53,-28.69,-28.85,0,*55
1494817443.83,627,15.5,74300.0,-3.53,-28.69,-28.79,0,*57
1494817445.06,628,15.56,74306.3,-3.53,-28.79,-28.85,0,*5A
1494817446.25,629,15.5,74300.5,-3.53,-28.85,-28.97,0,*5B
1494817447.51,630,15.5,74298.8,-3.53,-28.63,-28.63,0,*50
1494817448.79,631,15.5,74296.3,-3.51,-28.63,-28.63,0,*53
1494817450.02,632,15.5,74298.5,-3.53,-28.79,-28.85,0,*51
1494817451.26,633,15.5,74298.3,-3.53,-28.79,-28.79,0,*53
1494817452.46,634,15.5,74302.3,-3.53,-28.53,-28.69,0,*5D
1494817453.71,635,15.5,74302.8,-3.53,-28.79,-28.79,0,*55
1494817454.93,636,15.5,74300.0,-3.53,-28.63,-28.69,0,*5C
1494817456.16,637,15.5,74300.5,-3.53,-28.79,-28.85,0,*54
1494817457.38,638,15.5,74302.3,-3.53,-28.63,-28.69,0,*52
1494817458.61,639,15.5,74300.3,-3.53,-28.79,-28.85,0,*5A
1494817459.84,640,15.5,74300.5,-3.53,-28.63,-28.69,0,*5D
1494817461.04,641,15.5,74300.8,-3.53,-28.53,-28.69,0,*5F
1494817462.27,642,15.5,74298.8,-3.53,-28.53,-28.63,0,*56
1494817463.49,643,15.5,74298.0,-3.53,-28.47,-28.53,0,*51
1494817464.76,644,15.5,74300.3,-3.51,-28.63,-28.75,0,*56
1494817466.0,645,15.5,74300.8,-3.53,-28.63,-28.79,0,*59
1494817467.27,646,15.5,74298.3,-3.51,-28.43,-28.59,0,*58
1494817468.54,647,15.5,74302.0,-3.51,-28.63,-28.79,0,*59
1494817469.74,648,15.5,74296.3,-3.53,-28.53,-28.53,0,*5F
1494817471.02,649,15.5,74302.8,-3.51,-28.59,-28.63,0,*55
1494817472.27,650,15.5,74302.0,-3.51,-28.31,-28.43,0,*51
1494817473.53,651,15.56,74304.0,-3.51,-28.43,-28.43,0,*55
1494817474.78,652,15.5,74300.0,-3.51,-28.15,-28.25,0,*55
1494817476.05,653,15.5,74300.8,-3.51,-28.43,-28.47,0,*53
1494817477.33,654,15.5,74302.5,-3.51,-28.25,-28.47,0,*54
1494817478.6,655,15.5,74298.3,-3.51,-28.59,-28.63,0,*58
1494817479.85,656,15.5,74302.0,-3.49,-28.47,-28.59,0,*54
1494817481.12,657,15.56,74304.3,-3.51,-28.59,-28.79,0,*51
1494817482.39,658,15.5,74302.5,-3.51,-28.59,-28.63,0,*55
1494817483.65,659,15.5,74300.3,-3.51,-28.47,-28.75,0,*5C
1494817484.91,660,15.5,74306.0,-3.49,-28.59,-28.63,0,*57
1494817486.15,661,15.5,74306.0,-3.49,-28.63,-28.75,0,*58
1494817487.42,662,15.5,74302.0,-3.51,-28.59,-28.79,0,*57
1494817488.69,663,15.5,74302.5,-3.51,-28.47,-28.59,0,*5B
1494817489.93,664,15.5,74300.5,-3.49,-28.47,-28.63,0,*5C
1494817491.17,665,15.5,74302.5,-3.49,-28.59,-28.79,0,*59
1494817492.42,666,15.5,74304.0,-3.49,-28.63,-28.79,0,*53
1494817493.66,667,15.5,74306.0,-3.49,-28.43,-28.63,0,*5B
1494817494.91,668,15.5,74306.0,-3.49,-28.47,-28.63,0,*50
1494817496.15,669,15.5,74300.8,-3.49,-28.59,-28.75,0,*59
1494817497.4,670,15.5,74300.8,-3.49,-28.59,-28.79,0,*5D
1494817498.64,671,15.5,74302.5,-3.49,-28.59,-28.75,0,*50
1494817499.88,672,15.56,74310.3,-3.49,-28.59,-28.75,0,*53
1494817501.12,673,15.5,74304.3,-3.49,-28.47,-28.79,0,*51
1494817502.37,674,15.56,74308.0,-3.49,-28.59,-28.63,0,*52
1494817503.6,675,15.5,74306.3,-3.49,-28.47,-28.75,0,*5B
1494817504.84,676,15.5,74306.3,-3.49,-28.47,-28.79,0,*54
1494817506.11,677,15.5,74306.0,-3.47,-28.25,-28.43,0,*56
1494817507.34,678,15.5,74302.8,-3.47,-28.43,-28.69,0,*51
1494817508.56,679,15.5,74304.0,-3.49,-28.63,-28.97,0,*5D
1494817509.81,680,15.5,74300.5,-3.49,-28.63,-28.91,0,*5D
1494817511.05,681,15.5,74306.3,-3.47,-28.43,-28.69,0,*57
1494817512.3,682,15.5,74300.3,-3.49,-28.43,-28.59,0,*59
1494817513.53,683,15.5,74300.3,-3.49,-28.47,-28.75,0,*52
1494817514.75,684,15.5,74306.5,-3.47,-28.53,-28.85,0,*51
1494817516.0,685,15.5,74304.8,-3.49,-28.59,-28.79,0,*57
1494817517.24,686,15.5,74302.0,-3.51,-28.31,-28.59,0,*51
1494817518.48,687,15.5,74300.8,-3.49,-28.47,-28.79,0,*5A
1494817519.73,688,15.5,74304.3,-3.49,-28.59,-28.91,0,*5C
1494817520.96,689,15.5,74302.5,-3.49,-28.47,-28.75,0,*58
1494817522.2,690,15.5,74306.0,-3.49,-28.43,-28.75,0,*54
1494817523.44,691,15.5,74300.0,-3.47,-28.31,-28.59,0,*50
1494817524.69,692,15.5,74302.3,-3.47,-28.37,-28.59,0,*55
1494817525.95,693,15.5,74300.3,-3.47,-28.43,-28.75,0,*59
1494817527.16,694,15.5,74302.8,-3.49,-28.47,-28.97,0,*58
1494817528.4,695,15.5,74302.8,-3.49,-28.43,-28.75,0,*51
1494817529.64,696,15.5,74302.0,-3.49,-28.43,-28.75,0,*52
1494817530.86,697,15.5,74304.0,-3.47,-28.37,-28.69,0,*53
1494817532.09,698,15.5,74302.5,-3.49,-28.47,-28.79,0,*54
1494817533.33,699,15.5,74302.3,-3.47,-28.43,-28.69,0,*5E
1494817534.58,700,15.5,74300.0,-3.49,-28.25,-28.63,0,*5B
1494817535.82,701,15.5,74298.0,-3.47,-28.43,-28.69,0,*5E
1494817537.06,702,15.5,74302.5,-3.49,-28.43,-28.75,0,*5E
1494817538.3,703,15.5,74300.5,-3.47,-28.43,-28.85,0,*5E
1494817539.56,704,15.5,74302.3,-3.47,-28.43,-28.75,0,*56
1494817540.83,705,15.5,74298.0,-3.47,-28.25,-28.59,0,*59
1494817542.07,706,15.5,74300.8,-3.49,-28.43,-28.75,0,*5A
1494817543.31,707,15.5,74300.0,-3.49,-28.47,-28.75,0,*5F
1494817544.53,708,15.5,74300.0,-3.49,-28.31,-28.63,0,*56
1494817545.76,709,15.5,74302.8,-3.49,-28.31,-28.63,0,*57
1494817547.01,710,15.5,74304.0,-3.49,-28.25,-28.63,0,*5A
1494817548.25,711,15.5,74304.5,-3.49,-28.43,-28.79,0,*50
1494817549.47,712,15.5,74302.5,-3.47,-28.37,-28.69,0,*5F
1494817550.74,713,15.5,74302.5,-3.47,-28.25,-28.59,0,*5E
1494817551.98,714,15.5,74300.8,-3.47,-28.37,-28.75,0,*54
1494817553.19,715,15.5,74302.5,-3.49,-28.31,-28.79,0,*51
1494817554.43,716,15.5,74300.5,-3.47,-28.09,-28.53,0,*5F
1494817555.67,717,15.5,74300.0,-3.49,-28.47,-28.79,0,*52
1494817556.91,718,15.5,74300.3,-3.47,-28.25,-28.69,0,*56
1494817558.15,719,15.5,74302.0,-3.47,-28.37,-28.75,0,*59
1494817559.39,720,15.5,74300.5,-3.47,-28.21,-28.69,0,*59
1494817560.64,721,15.5,74304.8,-3.47,-28.21,-28.69,0,*58
1494817561.86,722,15.5,74304.5,-3.47,-28.37,-28.85,0,*5E
1494817563.1,723,15.5,74298.5,-3.47,-28.37,-28.75,0,*50
1494817564.33,724,15.5,74306.0,-3.49,-28.43,-28.79,0,*56
1494817565.58,725,15.5,74304.0,-3.47,-28.25,-28.69,0,*58
1494817566.79,726,15.5,74302.8,-3.49,-28.31,-28.79,0,*51
1494817568.04,727,15.5,74302.0,-3.47,-28.25,-28.69,0,*5A
1494817569.31,728,15.5,74304.0,-3.47,-28.25,-28.59,0,*56
1494817570.55,729,15.5,74300.5,-3.47,-28.25,-28.69,0,*54
1494817571.8,730,15.5,74302.0,-3.47,-28.21,-28.69,0,*58
1494817573.04,731,15.5,74302.8,-3.47,-28.05,-28.53,0,*56
1494817574.3,732,15.5,74306.0,-3.47,-28.21,-28.75,0,*57
1494817575.55,733,15.5,74304.3,-3.47,-28.21,-28.69,0,*5B
1494817576.79,734,15.5,74302.8,-3.47,-28.21,-28.69,0,*5C
1494817578.06,735,15.5,74306.8,-3.47,-28.09,-28.59,0,*54
1494817579.33,736,15.5,74306.0,-3.47,-28.05,-28.59,0,*5B
1494817580.57,737,15.5,74304.0,-3.47,-28.21,-28.69,0,*5F
1494817581.82,738,15.5,74306.5,-3.45,-28.21,-28.75,0,*5F
1494817583.06,739,15.5,74304.5,-3.45,-28.25,-28.75,0,*5A
1494817584.27,740,15.5,74304.5,-3.45,-28.43,-28.85,0,*5B
1494817585.49,741,15.5,74300.5,-3.45,-28.37,-28.75,0,*56
1494817586.68,742,15.5,74302.5,-3.45,-28.37,-28.69,0,*58
1494817587.9,743,15.5,74306.0,-3.45,-28.21,-28.69,0,*5E
1494817589.12,744,15.5,74306.5,-3.45,-28.25,-28.69,0,*5D
1494817590.39,745,15.5,74308.0,-3.43,-27.99,-28.47,0,*5E
1494817591.61,746,15.5,74306.5,-3.45,-28.05,-28.53,0,*54
1494817592.86,747,15.5,74308.5,-3.45,-28.05,-28.43,0,*54
1494817594.08,748,15.5,74304.0,-3.45,-28.05,-28.53,0,*5A
1494817595.29,749,15.5,74306.0,-3.43,-28.31,-28.69,0,*53
1494817596.53,750,15.5,74304.3,-3.45,-28.21,-28.75,0,*51
1494817597.78,751,15.5,74306.0,-3.43,-27.99,-28.53,0,*5E
1494817599.02,752,15.5,74304.8,-3.45,-28.21,-28.75,0,*53
1494817600.27,753,15.5,74306.3,-3.43,-28.05,-28.53,0,*56
1494817601.51,754,15.5,74308.3,-3.45,-28.09,-28.59,0,*51
1494817602.73,755,15.5,74304.8,-3.45,-27.89,-28.43,0,*5C
1494817603.97,756,15.5,74308.3,-3.45,-28.25,-28.75,0,*53
1494817605.2,757,15.5,74304.8,-3.43,-28.31,-28.79,0,*5D
1494817606.48,758,15.5,74304.8,-3.43,-28.05,-28.63,0,*5E
1494817607.73,759,15.5,74304.8,-3.43,-28.21,-28.69,0,*53
1494817608.99,760,15.5,74304.8,-3.43,-27.99,-28.47,0,*59
1494817610.24,761,15.5,74302.3,-3.45,-28.09,-28.59,0,*57
1494817611.46,762,15.5,74300.5,-3.45,-28.25,-28.85,0,*5B
1494817612.7,763,15.5,74306.3,-3.43,-28.15,-28.79,0,*5C
1494817613.95,764,15.5,74304.8,-3.43,-28.21,-28.85,0,*5F
1494817615.2,765,15.5,74302.0,-3.43,-28.21,-28.69,0,*5C
1494817616.46,766,15.5,74304.3,-3.43,-28.21,-28.79,0,*5E
1494817617.71,767,15.5,74306.5,-3.43,-27.99,-28.53,0,*5B
1494817618.96,768,15.5,74306.3,-3.39,-28.09,-28.63,0,*5C
1494817620.2,769,15.5,74308.0,-3.39,-28.09,-28.59,0,*54
1494817621.43,770,15.5,74308.8,-3.39,-27.93,-28.59,0,*50
1494817622.66,771,15.5,74306.3,-3.39,-28.09,-28.79,0,*5F
1494817623.91,772,15.5,74304.8,-3.39,-28.09,-28.63,0,*57
1494817625.15,773,15.5,74308.3,-3.39,-28.09,-28.75,0,*51
1494817626.4,774,15.5,74304.0,-3.39,-28.09,-28.63,0,*51
1494817627.64,775,15.5,74304.3,-3.39,-28.25,-28.75,0,*59
1494817628.91,776,15.5,74306.0,-3.37,-28.09,-28.75,0,*5A
1494817630.16,777,15.5,74306.3,-3.39,-28.09,-28.63,0,*52
1494817631.37,778,15.5,74302.8,-3.39,-28.15,-28.75,0,*57
1494817632.61,779,15.5,74306.5,-3.39,-28.09,-28.79,0,*57
1494817633.84,780,15.5,74306.8,-3.39,-28.25,-28.85,0,*5C
1494817635.12,781,15.5,74306.3,-3.37,-28.09,-28.63,0,*55
1494817636.36,782,15.5,74304.8,-3.39,-28.25,-28.79,0,*5D
1494817637.63,783,15.5,74304.0,-3.37,-28.25,-28.75,0,*5E
1494817638.9,784,15.5,74304.8,-3.37,-28.09,-28.75,0,*57
1494817640.14,785,15.5,74304.8,-3.37,-28.15,-28.75,0,*5B
1494817641.41,786,15.5,74302.5,-3.37,-28.09,-28.75,0,*55
1494817642.63,787,15.5,74304.8,-3.37,-28.31,-28.85,0,*50
1494817643.86,788,15.5,74304.5,-3.39,-28.25,-28.85,0,*54
1494817645.07,789,15.5,74300.5,-3.39,-28.15,-28.75,0,*59
1494817646.34,790,15.5,74302.0,-3.37,-28.25,-28.79,0,*50
1494817647.57,791,15.5,74306.3,-3.39,-28.25,-28.85,0,*5C
1494817648.84,792,15.5,74306.5,-3.37,-28.25,-28.75,0,*5E
1494817650.08,793,15.5,74306.8,-3.39,-28.25,-28.75,0,*51
1494817651.35,794,15.5,74304.0,-3.37,-28.09,-28.75,0,*56
1494817652.6,795,15.5,74300.0,-3.39,-27.99,-28.63,0,*58
1494817653.84,796,15.5,74302.0,-3.37,-28.15,-28.75,0,*59
1494817655.05,797,15.5,74300.5,-3.39,-28.15,-28.75,0,*56
1494817656.32,798,15.5,74300.3,-3.37,-28.09,-28.75,0,*5A
1494817657.56,799,15.5,74300.5,-3.39,-28.25,-28.79,0,*57
1494817658.81,800,15.5,74304.0,-3.37,-28.15,-28.79,0,*55
1494817660.06,801,15.5,74304.3,-3.37,-28.25,-28.85,0,*54
1494817661.3,802,15.5,74304.0,-3.39,-28.09,-28.79,0,*54
1494817662.55,803,15.5,74300.3,-3.37,-27.93,-28.59,0,*55
1494817663.8,804,15.5,74302.3,-3.37,-27.77,-28.43,0,*53
1494817665.02,805,15.5,74302.5,-3.39,-27.93,-28.47,0,*52
1494817666.26,806,15.5,74300.3,-3.37,-27.77,-28.43,0,*51
1494817667.53,807,15.5,74302.0,-3.37,-27.83,-28.47,0,*5F
1494817668.76,808,15.5,74298.5,-3.35,-27.89,-28.59,0,*57
1494817669.98,809,15.5,74298.3,-3.35,-27.93,-28.75,0,*53
1494817671.25,810,15.5,74298.8,-3.37,-28.09,-28.79,0,*59
1494817672.51,811,15.5,74300.3,-3.37,-27.99,-28.75,0,*52
1494817673.77,812,15.5,74302.0,-3.37,-27.93,-28.63,0,*5C
1494817674.99,813,15.5,74304.3,-3.35,-27.93,-28.75,0,*58
1494817676.26,814,15.5,74304.3,-3.37,-28.09,-28.79,0,*5D
1494817677.54,815,15.5,74306.3,-3.37,-28.09,-28.63,0,*57
1494817678.76,816,15.5,74306.0,-3.35,-27.93,-28.59,0,*53
1494817680.01,817,15.5,74306.0,-3.35,-28.05,-28.75,0,*5C
1494817681.26,818,15.5,74300.8,-3.35,-28.09,-28.75,0,*5F
1494817682.53,819,15.5,74302.0,-3.37,-28.25,-28.79,0,*5E
1494817683.8,820,15.5,74300.0,-3.37,-28.09,-28.75,0,*56
1494817685.06,821,15.5,74302.5,-3.37,-27.99,-28.79,0,*5D
1494817686.27,822,15.5,74300.5,-3.35,-27.93,-28.69,0,*57
1494817687.54,823,15.5,74298.8,-3.37,-28.09,-28.63,0,*52
1494817688.81,824,15.5,74304.3,-3.37,-28.09,-28.75,0,*52
1494817690.01,825,15.5,74308.0,-3.35,-27.93,-28.53,0,*59
1494817691.24,826,15.5,74306.3,-3.35,-27.71,-28.43,0,*57
1494817692.46,827,15.5,74304.3,-3.35,-27.93,-28.59,0,*51
1494817693.66,828,15.5,74300.3,-3.35,-27.93,-28.69,0,*5D
1494817694.87,829,15.5,74300.8,-3.35,-27.71,-28.37,0,*5B
1494817696.06,830,15.5,74300.5,-3.35,-27.89,-28.53,0,*56
1494817697.29,831,15.5,74302.5,-3.35,-27.93,-28.59,0,*56
1494817698.52,832,15.5,74302.0,-3.35,-27.93,-28.59,0,*55
1494817699.77,833,15.5,74300.8,-3.33,-28.05,-28.69,0,*51
1494817700.97,834,15.5,74304.8,-3.35,-27.93,-28.69,0,*50
1494817702.2,835,15.5,74304.3,-3.35,-27.77,-28.43,0,*53
1494817703.45,836,15.5,74306.8,-3.33,-27.89,-28.59,0,*5C
1494817704.71,837,15.5,74302.5,-3.35,-27.61,-28.21,0,*52
1494817705.91,838,15.5,74298.5,-3.35,-27.71,-28.37,0,*5B
1494817707.13,839,15.5,74304.0,-3.33,-27.89,-28.69,0,*50
1494817708.33,840,15.5,74304.8,-3.35,-27.93,-28.69,0,*53
1494817709.56,841,15.5,74304.0,-3.33,-27.93,-28.69,0,*54
1494817710.78,842,15.5,74306.0,-3.33,-27.71,-28.37,0,*50
1494817712.0,843,15.5,74304.0,-3.33,-27.77,-28.37,0,*57
1494817713.25,844,15.5,74300.0,-3.33,-27.71,-28.43,0,*55
1494817714.53,845,15.5,74292.5,-3.33,-27.39,-28.09,0,*56
1494817715.78,846,15.5,74292.8,-3.35,-27.39,-28.09,0,*53
1494817717.02,847,15.5,74294.0,-3.33,-27.55,-28.09,0,*5E
1494817718.25,848,15.5,74294.3,-3.29,-27.55,-28.31,0,*51
1494817719.47,849,15.5,74294.8,-3.29,-27.55,-28.31,0,*50
1494817720.7,850,15.5,74298.5,-3.33,-27.55,-28.37,0,*55